| time (UTC) | temp F | wind direction | speed MPH | gust MPH | rain 1hr in | rain 24hr in | rain mn in | humidity % | barometer mb |
| 20260507024026 | 41 | 0.0 | 0.0 | 0.00 | 0.00 | 0.00 | 95 | 1016.3 | |
| 20260507023023 | 41 | 0.0 | 0.0 | 0.00 | 0.00 | 0.00 | 95 | 1016.5 | |
| 20260507022021 | 41 | 0.0 | 0.0 | 0.00 | 0.00 | 0.00 | 95 | 1016.4 | |
| 20260507021018 | 41 | 0.0 | 0.0 | 0.00 | 0.00 | 0.00 | 95 | 1016.3 | |
| 20260507020015 | 40 | 0.0 | 0.0 | 0.00 | 0.00 | 0.00 | 94 | 1016.0 | |
| 20260507015102 | 40 | 0.0 | 0.0 | 0.00 | 0.00 | 0.00 | 94 | 1016.1 | |
| 20260507014040 | 40 | 0.0 | 0.0 | 0.00 | 0.00 | 0.00 | 94 | 1015.9 | |
| 20260507013037 | 40 | 0.0 | 0.0 | 0.00 | 0.00 | 0.00 | 93 | 1015.9 | |
| 20260507012034 | 40 | 0.0 | 0.0 | 0.00 | 0.00 | 0.00 | 93 | 1016.1 | |
| 20260507011052 | 41 | 0.0 | 0.0 | 0.00 | 0.00 | 0.00 | 93 | 1015.9 | |
| 20260507010029 | 41 | 0.0 | 0.0 | 0.00 | 0.00 | 0.00 | 92 | 1015.7 | |
| 20260507005026 | 41 | 268 | 2.0 | 2.0 | 0.00 | 0.00 | 0.00 | 92 | 1016.0 |
| 20260507004023 | 41 | 268 | 3.0 | 3.0 | 0.00 | 0.00 | 0.00 | 91 | 1015.8 |
| 20260507003021 | 41 | 268 | 4.0 | 4.0 | 0.00 | 0.00 | 0.00 | 91 | 1015.7 |
| 20260507002018 | 41 | 268 | 5.0 | 6.0 | 0.00 | 0.00 | 0.00 | 90 | 1015.8 |
| 20260507001015 | 42 | 268 | 5.0 | 6.0 | 0.00 | 0.00 | 0.00 | 90 | 1015.8 |
| 20260507000042 | 42 | 268 | 0.0 | 1.0 | 0.00 | 0.00 | 0.00 | 89 | 1015.7 |
| 20260506235040 | 43 | 268 | 0.0 | 1.0 | 0.00 | 0.00 | 0.00 | 88 | 1015.7 |
| 20260506234057 | 43 | 0.0 | 0.0 | 0.00 | 0.00 | 0.00 | 88 | 1015.9 | |
| 20260506233034 | 44 | 267 | 0.0 | 1.0 | 0.00 | 0.00 | 0.00 | 87 | 1015.8 |
| 20260506232031 | 43 | 267 | 0.0 | 1.0 | 0.00 | 0.00 | 0.00 | 87 | 1015.8 |
| 20260506231029 | 44 | 267 | 1.0 | 2.0 | 0.00 | 0.00 | 0.00 | 87 | 1015.4 |
| 20260506230026 | 44 | 0.0 | 0.0 | 0.00 | 0.00 | 0.00 | 86 | 1015.5 | |
| 20260506225022 | 45 | 0.0 | 0.0 | 0.00 | 0.00 | 0.00 | 85 | 1015.6 | |
| 20260506224020 | 45 | 267 | 0.0 | 1.0 | 0.00 | 0.00 | 0.00 | 85 | 1015.4 |
| 20260506223017 | 45 | 267 | 2.0 | 6.0 | 0.00 | 0.00 | 0.00 | 87 | 1015.4 |
| 20260506222045 | 44 | 267 | 0.0 | 1.0 | 0.00 | 0.00 | 0.00 | 88 | 1015.4 |
| 20260506221042 | 45 | 267 | 0.0 | 1.0 | 0.00 | 0.00 | 0.00 | 88 | 1015.3 |
| 20260506220059 | 45 | 0.0 | 0.0 | 0.00 | 0.00 | 0.00 | 88 | 1015.2 | |
| 20260506215036 | 46 | 267 | 0.0 | 1.0 | 0.00 | 0.00 | 0.00 | 87 | 1015.2 |
| 20260506214033 | 47 | 267 | 2.0 | 3.0 | 0.00 | 0.00 | 0.00 | 86 | 1015.2 |
| 20260506213050 | 47 | 267 | 5.0 | 6.0 | 0.00 | 0.00 | 0.00 | 85 | 1014.9 |
| 20260506212028 | 48 | 266 | 6.0 | 8.0 | 0.00 | 0.00 | 0.00 | 84 | 1014.8 |
| 20260506211025 | 48 | 266 | 7.0 | 11.0 | 0.00 | 0.00 | 0.00 | 84 | 1014.8 |
| 20260506210022 | 49 | 266 | 9.0 | 11.0 | 0.00 | 0.00 | 0.00 | 84 | 1014.8 |
| 20260506205020 | 49 | 266 | 7.0 | 10.0 | 0.00 | 0.00 | 0.00 | 83 | 1014.8 |
| 20260506204037 | 49 | 266 | 5.0 | 7.0 | 0.00 | 0.00 | 0.00 | 82 | 1014.6 |
| 20260506203044 | 49 | 266 | 4.0 | 6.0 | 0.00 | 0.00 | 0.00 | 82 | 1014.8 |
| 20260506202041 | 49 | 266 | 5.0 | 7.0 | 0.00 | 0.00 | 0.00 | 82 | 1014.6 |
| 20260506201038 | 49 | 266 | 6.0 | 8.0 | 0.00 | 0.00 | 0.00 | 81 | 1014.6 |
| 20260506200035 | 49 | 266 | 5.0 | 7.0 | 0.00 | 0.00 | 0.00 | 80 | 1014.5 |
| 20260506195032 | 49 | 266 | 5.0 | 8.0 | 0.00 | 0.00 | 0.00 | 79 | 1014.3 |
| 20260506194030 | 50 | 266 | 6.0 | 8.0 | 0.00 | 0.00 | 0.00 | 78 | 1014.4 |
| 20260506193027 | 51 | 266 | 7.0 | 8.0 | 0.00 | 0.00 | 0.00 | 77 | 1014.0 |
| 20260506192025 | 51 | 266 | 9.0 | 11.0 | 0.00 | 0.00 | 0.00 | 75 | 1013.9 |
| 20260506191022 | 52 | 266 | 10.0 | 13.0 | 0.00 | 0.00 | 0.00 | 73 | 1013.7 |
| 20260506190019 | 53 | 266 | 10.0 | 14.0 | 0.00 | 0.00 | 0.00 | 73 | 1013.5 |
| 20260506185016 | 53 | 267 | 13.0 | 16.0 | 0.00 | 0.00 | 0.00 | 72 | 1013.2 |
| 20260506184044 | 54 | 269 | 15.0 | 19.0 | 0.00 | 0.00 | 0.00 | 69 | 1013.3 |
| 20260506183040 | 54 | 296 | 13.0 | 15.0 | 0.00 | 0.00 | 0.00 | 67 | 1013.3 |
| 20260506182038 | 54 | 352 | 12.0 | 17.0 | 0.00 | 0.00 | 0.00 | 66 | 1013.2 |
| 20260506181035 | 54 | 28 | 9.0 | 14.0 | 0.00 | 0.00 | 0.00 | 67 | 1013.0 |
| 20260506180033 | 54 | 43 | 9.0 | 10.0 | 0.00 | 0.00 | 0.00 | 65 | 1012.8 |
| 20260506175030 | 55 | 25 | 13.0 | 18.0 | 0.00 | 0.00 | 0.00 | 67 | 1012.8 |
| 20260506174027 | 55 | 28 | 15.0 | 22.0 | 0.00 | 0.00 | 0.00 | 65 | 1012.7 |
| 20260506173043 | 55 | 47 | 12.0 | 17.0 | 0.00 | 0.00 | 0.00 | 66 | 1012.4 |
| 20260506172021 | 56 | 32 | 13.0 | 16.0 | 0.00 | 0.00 | 0.00 | 65 | 1012.5 |
| 20260506171018 | 56 | 35 | 17.0 | 21.0 | 0.00 | 0.00 | 0.00 | 65 | 1012.4 |
| 20260506170016 | 56 | 16 | 19.0 | 24.0 | 0.00 | 0.00 | 0.00 | 65 | 1012.3 |
| 20260506165042 | 56 | 20 | 16.0 | 19.0 | 0.00 | 0.00 | 0.00 | 65 | 1012.3 |
| 20260506164040 | 57 | 17 | 17.0 | 23.0 | 0.00 | 0.00 | 0.00 | 65 | 1012.3 |
| 20260506163037 | 57 | 37 | 19.0 | 24.0 | 0.00 | 0.00 | 0.00 | 65 | 1012.2 |
| 20260506162034 | 57 | 19 | 19.0 | 22.0 | 0.00 | 0.00 | 0.00 | 66 | 1012.0 |
| 20260506161032 | 57 | 42 | 17.0 | 21.0 | 0.00 | 0.00 | 0.00 | 64 | 1012.1 |
| 20260506160028 | 57 | 35 | 14.0 | 19.0 | 0.00 | 0.00 | 0.00 | 66 | 1012.1 |
| 20260506155025 | 57 | 47 | 18.0 | 21.0 | 0.00 | 0.00 | 0.00 | 64 | 1012.0 |
| 20260506154103 | 58 | 38 | 15.0 | 18.0 | 0.00 | 0.00 | 0.00 | 64 | 1012.1 |
| 20260506153040 | 58 | 43 | 19.0 | 23.0 | 0.00 | 0.00 | 0.00 | 65 | 1012.0 |
| 20260506152018 | 58 | 38 | 14.0 | 18.0 | 0.00 | 0.00 | 0.00 | 67 | 1011.9 |
| 20260506151125 | 57 | 34 | 16.0 | 23.0 | 0.00 | 0.00 | 0.00 | 67 | 1011.9 |
| 20260506150042 | 57 | 30 | 18.0 | 24.0 | 0.00 | 0.00 | 0.00 | 67 | 1011.9 |
| 20260506145059 | 58 | 102 | 14.0 | 21.0 | 0.00 | 0.00 | 0.00 | 64 | 1011.9 |
| 20260506144037 | 58 | 31 | 17.0 | 22.0 | 0.00 | 0.00 | 0.00 | 65 | 1011.8 |
| 20260506143034 | 58 | 30 | 17.0 | 19.0 | 0.00 | 0.00 | 0.00 | 64 | 1011.9 |
| 20260506142031 | 57 | 34 | 16.0 | 19.0 | 0.00 | 0.00 | 0.00 | 65 | 1011.9 |
| 20260506141029 | 57 | 30 | 17.0 | 22.0 | 0.00 | 0.00 | 0.00 | 65 | 1011.9 |
| 20260506140026 | 57 | 42 | 14.0 | 18.0 | 0.00 | 0.00 | 0.00 | 65 | 1011.8 |
| 20260506135023 | 57 | 42 | 18.0 | 21.0 | 0.00 | 0.00 | 0.00 | 65 | 1011.8 |
| 20260506134020 | 58 | 40 | 15.0 | 18.0 | 0.00 | 0.00 | 0.00 | 64 | 1011.6 |
| 20260506133018 | 57 | 40 | 18.0 | 23.0 | 0.00 | 0.00 | 0.00 | 65 | 1011.6 |
| 20260506132035 | 57 | 39 | 13.0 | 19.0 | 0.00 | 0.00 | 0.00 | 65 | 1011.6 |
| 20260506131042 | 58 | 63 | 12.0 | 18.0 | 0.00 | 0.00 | 0.00 | 67 | 1011.7 |
| 20260506130040 | 58 | 11 | 11.0 | 14.0 | 0.00 | 0.00 | 0.00 | 68 | 1011.6 |
| 20260506125057 | 57 | 34 | 15.0 | 19.0 | 0.00 | 0.00 | 0.00 | 67 | 1011.6 |
| 20260506124055 | 57 | 47 | 15.0 | 17.0 | 0.00 | 0.00 | 0.00 | 65 | 1011.5 |
| 20260506123032 | 57 | 23 | 13.0 | 18.0 | 0.00 | 0.00 | 0.00 | 67 | 1011.4 |
| 20260506122029 | 57 | 29 | 15.0 | 22.0 | 0.00 | 0.00 | 0.00 | 64 | 1011.6 |
| 20260506121026 | 58 | 355 | 10.0 | 13.0 | 0.00 | 0.00 | 0.00 | 65 | 1011.4 |
| 20260506120023 | 58 | 41 | 8.0 | 9.0 | 0.00 | 0.00 | 0.00 | 61 | 1011.4 |
| 20260506115021 | 57 | 57 | 9.0 | 13.0 | 0.00 | 0.00 | 0.00 | 58 | 1011.5 |
| 20260506114018 | 59 | 38 | 12.0 | 16.0 | 0.00 | 0.00 | 0.00 | 61 | 1011.4 |
| 20260506113035 | 57 | 38 | 13.0 | 16.0 | 0.00 | 0.00 | 0.00 | 61 | 1011.5 |
| 20260506112043 | 58 | 75 | 16.0 | 21.0 | 0.00 | 0.00 | 0.00 | 62 | 1011.5 |
| 20260506111040 | 57 | 30 | 13.0 | 16.0 | 0.00 | 0.00 | 0.00 | 67 | 1011.4 |
| 20260506110037 | 58 | 52 | 13.0 | 16.0 | 0.00 | 0.00 | 0.00 | 65 | 1011.4 |
| 20260506105053 | 57 | 45 | 16.0 | 21.0 | 0.00 | 0.00 | 0.00 | 65 | 1011.5 |
| 20260506104030 | 57 | 53 | 13.0 | 16.0 | 0.00 | 0.00 | 0.00 | 69 | 1011.5 |
| 20260506103027 | 57 | 28 | 11.0 | 15.0 | 0.00 | 0.00 | 0.00 | 70 | 1011.4 |
| 20260506102025 | 57 | 35 | 12.0 | 15.0 | 0.00 | 0.00 | 0.00 | 71 | 1011.3 |
| 20260506101022 | 56 | 46 | 11.0 | 14.0 | 0.00 | 0.00 | 0.00 | 71 | 1011.5 |
| 20260506100039 | 57 | 35 | 12.0 | 15.0 | 0.00 | 0.00 | 0.00 | 72 | 1011.3 |
| 20260506095037 | 56 | 50 | 11.0 | 14.0 | 0.00 | 0.00 | 0.00 | 74 | 1011.4 |
| 20260506094044 | 55 | 51 | 10.0 | 14.0 | 0.00 | 0.00 | 0.00 | 74 | 1011.4 |
| 20260506093041 | 55 | 37 | 16.0 | 19.0 | 0.00 | 0.00 | 0.00 | 76 | 1011.5 |
| 20260506092038 | 55 | 354 | 14.0 | 18.0 | 0.00 | 0.00 | 0.00 | 76 | 1011.3 |
| 20260506091035 | 54 | 15 | 12.0 | 14.0 | 0.00 | 0.00 | 0.00 | 78 | 1011.4 |
| 20260506090033 | 54 | 43 | 11.0 | 14.0 | 0.00 | 0.00 | 0.00 | 78 | 1011.4 |
| 20260506085030 | 55 | 26 | 8.0 | 13.0 | 0.00 | 0.00 | 0.00 | 77 | 1011.4 |
| 20260506084027 | 54 | 44 | 13.0 | 16.0 | 0.00 | 0.00 | 0.00 | 75 | 1011.3 |
| 20260506083044 | 54 | 41 | 11.0 | 16.0 | 0.00 | 0.00 | 0.00 | 76 | 1011.3 |
| 20260506082022 | 54 | 65 | 17.0 | 22.0 | 0.00 | 0.00 | 0.00 | 75 | 1011.3 |
| 20260506081019 | 55 | 39 | 13.0 | 19.0 | 0.00 | 0.00 | 0.00 | 75 | 1011.3 |
| 20260506073039 | 53 | 33 | 11.0 | 13.0 | 0.00 | 0.00 | 0.00 | 80 | 1011.1 |
| 20260506072036 | 54 | 42 | 10.0 | 11.0 | 0.00 | 0.00 | 0.00 | 81 | 1011.2 |
| 20260506071033 | 53 | 51 | 11.0 | 16.0 | 0.00 | 0.00 | 0.00 | 81 | 1011.2 |
| 20260506062019 | 51 | 28 | 10.0 | 13.0 | 0.00 | 0.00 | 0.00 | 85 | 1011.1 |
| 20260506061017 | 51 | 351 | 10.0 | 15.0 | 0.00 | 0.00 | 0.00 | 85 | 1011.0 |
| 20260506051031 | 50 | 266 | 10.0 | 14.0 | 0.00 | 0.00 | 0.00 | 86 | 1010.8 |
| 20260506045025 | 50 | 266 | 10.0 | 13.0 | 0.00 | 0.00 | 0.00 | 85 | 1011.0 |
| 20260506044022 | 50 | 266 | 11.0 | 13.0 | 0.00 | 0.00 | 0.00 | 85 | 1011.0 |
| 20260506043019 | 50 | 266 | 10.0 | 13.0 | 0.00 | 0.00 | 0.00 | 85 | 1011.0 |
| 20260506042016 | 50 | 266 | 11.0 | 14.0 | 0.00 | 0.00 | 0.00 | 84 | 1010.9 |
| 20260506041044 | 50 | 267 | 12.0 | 14.0 | 0.00 | 0.00 | 0.00 | 83 | 1011.0 |
| 20260506040041 | 50 | 266 | 9.0 | 11.0 | 0.00 | 0.00 | 0.00 | 82 | 1011.0 |
| 20260506035038 | 50 | 267 | 12.0 | 14.0 | 0.00 | 0.00 | 0.00 | 82 | 1011.0 |
| 20260506034036 | 50 | 267 | 11.0 | 14.0 | 0.00 | 0.00 | 0.00 | 82 | 1011.0 |
| 20260506033033 | 50 | 266 | 10.0 | 14.0 | 0.00 | 0.00 | 0.00 | 84 | 1011.0 |
| 20260506032030 | 50 | 266 | 12.0 | 13.0 | 0.00 | 0.00 | 0.00 | 85 | 1011.2 |
| 20260506031028 | 50 | 266 | 9.0 | 11.0 | 0.00 | 0.00 | 0.00 | 85 | 1011.2 |
| 20260506030105 | 50 | 266 | 12.0 | 15.0 | 0.00 | 0.00 | 0.00 | 85 | 1011.1 |
| 20260506025022 | 50 | 266 | 8.0 | 9.0 | 0.00 | 0.00 | 0.00 | 85 | 1011.4 |